Location: Henham
(51.9333°N, 0.2500°E)
Time: 22:33:00
(UTC+00:00)

STARLINK-33 - Visible Passes

Search period start: 27 January 2020 00:00
Search period end: 06 February 2020 00:00
Orbit: 449 x 450 km, 53.0° (Epoch: 27 January)

Date Brightness Start Highest point End Pass type
(mag) Time Alt. Az. Time Alt. Az. Time Alt. Az.
27 Jan 3.7 05:16:59 60° ENE 05:16:59 60° ENE 05:19:57 10° ENE visible
27 Jan 3.2 06:50:34 12° W 06:53:51 75° N 06:57:25 10° E visible
28 Jan 5.6 04:40:45 24° ENE 04:40:45 24° ENE 04:42:16 10° ENE visible
28 Jan 3.2 06:14:20 27° WNW 06:16:09 73° N 06:19:43 10° E visible
29 Jan 6.7 04:04:31 11° ENE 04:04:31 11° ENE 04:04:36 10° ENE visible
29 Jan 3.1 05:38:06 64° NW 05:38:28 72° N 05:42:02 10° E visible
30 Jan 4.4 05:01:52 42° ENE 05:01:52 42° ENE 05:04:21 10° E visible
30 Jan 3.2 06:35:28 16° WNW 06:38:15 81° SSW 06:41:49 10° ESE visible
31 Jan 6.0 04:25:40 18° ENE 04:25:40 18° ENE 04:26:43 10° E visible
31 Jan 3.1 05:59:15 35° WNW 06:00:37 90° NNE 06:04:11 10° ESE visible
01 Feb 3.1 05:23:04 82° NE 05:23:04 82° NE 05:26:34 10° E visible
01 Feb 4.1 06:56:53 10° W 07:00:13 38° SSW 07:03:32 10° SE visible
02 Feb 5.0 04:46:55 32° E 04:46:55 32° E 04:48:57 10° E visible
02 Feb 3.7 06:20:31 20° W 06:22:41 46° SSW 06:26:06 10° SE visible
03 Feb 6.4 04:10:49 14° E 04:10:49 14° E 04:11:21 10° E visible
03 Feb 3.4 05:44:25 45° WSW 05:45:09 56° SSW 05:48:38 10° SE visible
04 Feb 3.9 05:08:23 48° SE 05:08:23 48° SE 05:11:08 10° ESE visible
04 Feb 5.0 06:41:59 10° W 06:44:30 18° SW 06:47:02 10° S visible
05 Feb 5.7 04:32:25 20° ESE 04:32:25 20° ESE 04:33:38 10° ESE visible
05 Feb 4.7 06:06:01 20° WSW 06:07:05 23° SW 06:09:56 10° SSE visible
